FW3706 Weather Reports


Display with metric or nautical units.
time (UTC)temp
F
wind
direction
speed
MPH
gust
MPH
rain 1hr
in
rain 24hr
in
rain mn
in
humidity
%
barometer
mb
20260831092503 82 8 0.0 0.0 0.00 0.00 0.00 54 1013.6
20260831092004 82 7 0.0 0.0 0.00 0.00 0.00 53 1013.7
20260831091601 82 7 0.0 0.0 0.00 0.00 0.00 53 1013.7
20260831091006 82 7 0.0 0.0 0.00 0.00 0.00 53 1013.8
20260831090501 82 7 0.0 0.0 0.00 0.00 0.00 53 1013.8
20260831090051 82 7 0.0 0.0 0.00 0.00 0.00 52 1013.9
20260831085503 82 7 0.0 0.0 0.00 0.00 0.00 53 1013.9
20260831085015 82 7 0.0 0.0 0.00 0.00 0.00 53 1013.9
20260831084528 83 7 0.0 2.0 0.00 0.00 0.00 53 1013.9
20260831084003 83 7 0.0 2.0 0.00 0.00 0.00 53 1013.9
20260831083500 83 7 0.0 0.0 0.00 0.00 0.00 52 1013.9
20260831083027 83 7 0.0 0.0 0.00 0.00 0.00 52 1013.9
20260831082504 83 8 0.0 0.0 0.00 0.00 0.00 52 1013.9
20260831082016 83 8 0.0 0.0 0.00 0.00 0.00 51 1014.0
20260831081523 84 8 0.0 0.0 0.00 0.00 0.00 51 1013.9
20260831081004 84 8 0.0 1.0 0.00 0.00 0.00 50 1014.0
20260831080516 84 7 0.0 2.0 0.00 0.00 0.00 50 1014.0
20260831080033 84 8 0.0 2.0 0.00 0.00 0.00 50 1013.9
20260831075517 84 8 0.0 1.0 0.00 0.00 0.00 50 1014.0
20260831075013 84 8 0.0 1.0 0.00 0.00 0.00 50 1014.0
20260831074524 84 7 0.0 2.0 0.00 0.00 0.00 50 1014.1
20260831074006 84 7 0.0 2.0 0.00 0.00 0.00 49 1014.2
20260831073513 84 7 0.0 2.0 0.00 0.00 0.00 49 1014.2
20260831073024 85 7 0.0 2.0 0.00 0.00 0.00 49 1014.1
20260831072505 85 7 0.0 0.0 0.00 0.00 0.00 48 1014.0
20260831072017 85 8 0.0 2.0 0.00 0.00 0.00 48 1014.0
20260831071523 85 8 0.0 2.0 0.00 0.00 0.00 48 1014.1
20260831071004 85 7 0.0 2.0 0.00 0.00 0.00 47 1014.1
20260831070519 85 7 0.0 3.0 0.00 0.00 0.00 47 1014.0
20260831070035 86 7 1.0 3.0 0.00 0.00 0.00 47 1014.1
20260831065502 86 7 0.0 4.0 0.00 0.00 0.00 47 1014.2
20260831065013 86 7 2.0 4.0 0.00 0.00 0.00 47 1014.2
20260831064534 86 7 2.0 4.0 0.00 0.00 0.00 47 1014.3
20260831064008 86 7 1.0 4.0 0.00 0.00 0.00 46 1014.3
20260831063513 86 8 1.0 6.0 0.00 0.00 0.00 47 1014.3
20260831063025 86 8 2.0 6.0 0.00 0.00 0.00 47 1014.3
20260831062504 86 8 1.0 4.0 0.00 0.00 0.00 47 1014.3
20260831062014 86 8 1.0 3.0 0.00 0.00 0.00 47 1014.3
20260831061529 86 8 0.0 2.0 0.00 0.00 0.00 47 1014.3
20260831061004 86 8 0.0 2.0 0.00 0.00 0.00 47 1014.3
20260831060516 86 8 0.0 2.0 0.00 0.00 0.00 46 1014.4
20260831060027 86 8 0.0 1.0 0.00 0.00 0.00 45 1014.3
20260831055503 87 8 0.0 2.0 0.00 0.00 0.00 45 1014.3
20260831055016 87 8 0.0 4.0 0.00 0.00 0.00 45 1014.3
20260831054524 87 9 0.0 5.0 0.00 0.00 0.00 45 1014.3
20260831054006 87 360 2.0 6.0 0.00 0.00 0.00 45 1014.3
20260831053516 87 360 1.0 6.0 0.00 0.00 0.00 44 1014.3
20260831053030 87 360 1.0 6.0 0.00 0.00 0.00 43 1014.2
20260831052506 87 360 3.0 7.0 0.00 0.00 0.00 43 1014.0
20260831052014 87 360 2.0 7.0 0.00 0.00 0.00 43 1013.9
20260831051525 87 360 2.0 7.0 0.00 0.00 0.00 43 1013.8
20260831051004 87 360 1.0 7.0 0.00 0.00 0.00 43 1013.8
20260831050512 87 360 2.0 8.0 0.00 0.00 0.00 42 1013.7
20260831050028 88 360 4.0 8.0 0.00 0.00 0.00 42 1013.8
20260831045506 88 11 3.0 10.0 0.00 0.00 0.00 42 1013.9
20260831045015 88 360 5.0 10.0 0.00 0.00 0.00 42 1013.9
20260831044524 88 360 3.0 9.0 0.00 0.00 0.00 42 1013.9
20260831044004 88 11 3.0 7.0 0.00 0.00 0.00 42 1013.9
20260831043515 88 360 3.0 6.0 0.00 0.00 0.00 42 1013.9
20260831043020 88 360 1.0 7.0 0.00 0.00 0.00 42 1013.9
20260831042506 88 360 2.0 8.0 0.00 0.00 0.00 42 1013.9
20260831042017 88 11 3.0 8.0 0.00 0.00 0.00 42 1013.9
20260831041520 88 11 5.0 8.0 0.00 0.00 0.00 42 1013.8
20260831041006 88 360 3.0 8.0 0.00 0.00 0.00 42 1013.8
20260831040514 88 11 3.0 8.0 0.00 0.00 0.00 42 1013.8
20260831040022 88 360 3.0 9.0 0.00 0.00 0.00 42 1013.8
20260831035508 88 360 4.0 9.0 0.00 0.00 0.00 42 1013.8
20260831035013 88 360 2.0 9.0 0.00 0.00 0.00 41 1013.7
20260831034519 88 360 3.0 9.0 0.00 0.00 0.00 41 1013.7
20260831034006 89 360 3.0 8.0 0.00 0.00 0.00 41 1013.6
20260831033514 89 360 3.0 8.0 0.00 0.00 0.00 40 1013.6
20260831033020 89 11 3.0 8.0 0.00 0.00 0.00 40 1013.5
20260831032516 89 10 5.0 9.0 0.00 0.00 0.00 40 1013.5
20260831032017 89 8 4.0 10.0 0.00 0.00 0.00 40 1013.4
20260831031518 90 8 4.0 12.0 0.00 0.00 0.00 40 1013.2
20260831031016 90 9 6.0 12.0 0.00 0.00 0.00 40 1013.0
20260831030513 90 360 6.0 13.0 0.00 0.00 0.00 40 1012.8
20260831030019 90 8 7.0 13.0 0.00 0.00 0.00 40 1012.6
20260831025504 90 8 3.0 9.0 0.00 0.00 0.00 39 1012.5
20260831025015 91 8 4.0 13.0 0.00 0.00 0.00 39 1012.4
20260831024518 91 8 6.0 13.0 0.00 0.00 0.00 39 1012.4
20260831024006 91 6 5.0 18.0 0.00 0.00 0.00 38 1012.3
20260831023516 92 7 7.0 18.0 0.00 0.00 0.00 37 1012.1
20260831023022 93 7 7.0 12.0 0.00 0.00 0.00 37 1011.9
20260831022516 93 8 4.0 10.0 0.00 0.00 0.00 36 1011.8
20260831022012 94 240 3.0 10.0 0.00 0.00 0.00 36 1011.5
20260831021526 94 235 2.0 10.0 0.00 0.00 0.00 36 1011.4
20260831021008 94 258 4.0 10.0 0.00 0.00 0.00 35 1011.3
20260831020512 95 248 4.0 7.0 0.00 0.00 0.00 34 1011.3
20260831020023 95 274 2.0 7.0 0.00 0.00 0.00 34 1011.2
20260831015518 95 261 3.0 7.0 0.00 0.00 0.00 34 1011.2
20260831015013 95 261 2.0 6.0 0.00 0.00 0.00 33 1011.1
20260831014528 95 263 2.0 6.0 0.00 0.00 0.00 33 1011.2
20260831014005 95 270 3.0 6.0 0.00 0.00 0.00 33 1011.2
20260831013512 95 272 3.0 7.0 0.00 0.00 0.00 33 1011.1
20260831013021 95 283 3.0 7.0 0.00 0.00 0.00 32 1011.1
20260831012506 96 275 3.0 6.0 0.00 0.00 0.00 32 1011.1
20260831012014 96 262 3.0 6.0 0.00 0.00 0.00 32 1011.2
20260831011528 96 262 3.0 7.0 0.00 0.00 0.00 32 1011.1
20260831011015 96 271 1.0 7.0 0.00 0.01 0.00 31 1011.1
20260831010514 96 245 2.0 7.0 0.00 0.03 0.00 31 1011.2
20260831010024 96 273 3.0 8.0 0.00 0.05 0.00 31 1011.1
20260831005504 96 270 2.0 8.0 0.00 0.05 0.00 31 1011.1
20260831005015 97 260 2.0 7.0 0.00 0.05 0.00 31 1011.1
20260831004532 97 264 2.0 6.0 0.00 0.05 0.00 31 1011.1
20260831004018 97 262 2.0 5.0 0.00 0.05 0.00 30 1011.0
20260831003520 97 278 1.0 7.0 0.00 0.05 0.00 31 1011.0
20260831003028 97 264 2.0 7.0 0.00 0.05 0.00 31 1011.1
20260831002518 97 202 2.0 6.0 0.00 0.05 0.00 30 1011.1
20260831002018 97 255 2.0 6.0 0.00 0.05 0.00 30 1011.2
20260831001518 97 256 2.0 6.0 0.00 0.05 0.00 30 1011.2
20260831001017 97 263 1.0 5.0 0.00 0.05 0.00 30 1011.2
20260831000515 97 259 2.0 8.0 0.00 0.05 0.00 30 1011.2
20260831000021 97 265 3.0 8.0 0.00 0.05 0.00 30 1011.2
20260830235506 98 248 3.0 7.0 0.00 0.05 0.00 30 1011.1
20260830235011 98 259 2.0 6.0 0.00 0.05 0.00 30 1011.1
20260830234534 98 283 2.0 6.0 0.00 0.05 0.00 30 1011.1
20260830234004 98 210 1.0 6.0 0.00 0.05 0.00 30 1011.0
20260830233514 98 207 3.0 6.0 0.00 0.05 0.00 29 1011.1
20260830233035 99 240 2.0 8.0 0.00 0.05 0.00 29 1011.3
20260830232518 99 259 3.0 10.0 0.00 0.05 0.00 29 1011.3
20260830232014 99 258 4.0 12.0 0.00 0.05 0.00 29 1011.4
20260830231534 99 255 6.0 12.0 0.00 0.05 0.00 30 1011.4
20260830231017 99 231 4.0 11.0 0.00 0.05 0.00 29 1011.5
20260830230512 100 243 4.0 12.0 0.00 0.05 0.00 29 1011.5
20260830230022 101 230 7.0 10.0 0.00 0.05 0.00 28 1011.6
20260830225504 101 330 3.0 7.0 0.00 0.05 0.00 29 1011.7
20260830225012 101 159 1.0 4.0 0.00 0.05 0.00 28 1011.8
20260830224520 100 283 1.0 8.0 0.00 0.05 0.00 29 1012.0
20260830224006 100 287 3.0 8.0 0.00 0.05 0.00 30 1012.0
20260830223517 101 301 4.0 7.0 0.00 0.05 0.00 28 1012.1
20260830223032 102 311 1.0 6.0 0.00 0.05 0.00 28 1012.2
20260830222516 101 230 2.0 9.0 0.00 0.05 0.00 29 1012.3
20260830222015 101 266 4.0 9.0 0.00 0.05 0.00 28 1012.4
20260830221543 102 246 4.0 9.0 0.00 0.05 0.00 28 1012.4
20260830221017 102 259 2.0 8.0 0.00 0.05 0.00 28 1012.5
20260830220512 101 264 2.0 12.0 0.00 0.05 0.00 29 1012.5
20260830220017 102 313 6.0 10.0 0.00 0.05 0.00 28 1012.7
20260830215522 102 316 2.0 5.0 0.00 0.05 0.00 28 1012.8
20260830215013 101 303 2.0 5.0 0.00 0.05 0.00 28 1012.8
20260830214520 102 311 2.0 7.0 0.00 0.05 0.00 28 1012.9
20260830214019 101 285 2.0 7.0 0.00 0.05 0.00 29 1013.0
20260830213516 99 261 1.0 8.0 0.00 0.05 0.00 31 1013.1
20260830213032 99 316 1.0 8.0 0.00 0.05 0.00 30 1013.2
20260830212519 100 307 5.0 8.0 0.00 0.05 0.00 30 1013.3
20260830212019 101 261 3.0 7.0 0.00 0.05 0.00 29 1013.4
20260830211518 100 178 1.0 7.0 0.00 0.05 0.00 29 1013.4
20260830211018 101 309 2.0 7.0 0.00 0.05 0.00 29 1013.5
20260830210512 100 298 0.0 9.0 0.00 0.05 0.00 30 1013.6
20260830210036 100 297 2.0 9.0 0.00 0.05 0.00 30 1013.7
20260830205519 101 271 2.0 6.0 0.00 0.05 0.00 30 1013.8
20260830205012 100 304 2.0 5.0 0.00 0.05 0.00 30 1013.9
20260830204520 99 212 1.0 6.0 0.00 0.05 0.00 30 1014.1
20260830204015 99 290 1.0 6.0 0.00 0.05 0.00 30 1014.2
20260830203519 99 284 3.0 7.0 0.00 0.05 0.00 31 1014.3
20260830203034 99 318 3.0 7.0 0.00 0.05 0.00 31 1014.4
20260830202519 99 244 0.0 7.0 0.00 0.05 0.00 31 1014.4
20260830202015 99 298 4.0 6.0 0.00 0.05 0.00 30 1014.5
20260830201518 100 252 2.0 7.0 0.00 0.05 0.00 31 1014.6
20260830201016 99 198 1.0 7.0 0.00 0.05 0.00 31 1014.7
20260830200519 98 184 2.0 8.0 0.00 0.05 0.00 33 1014.7
20260830200044 98 152 2.0 8.0 0.00 0.05 0.00 32 1014.8
20260830195518 99 166 2.0 8.0 0.00 0.05 0.00 32 1014.8
20260830195011 98 176 3.0 6.0 0.00 0.05 0.00 32 1015.0
20260830194519 98 158 3.0 5.0 0.00 0.05 0.00 31 1015.1
20260830194019 100 23 2.0 5.0 0.00 0.05 0.00 32 1015.2
20260830193518 100 1 1.0 4.0 0.00 0.05 0.00 31 1015.4
20260830193032 98 38 0.0 5.0 0.00 0.05 0.00 33 1015.5
20260830192518 97 48 2.0 6.0 0.00 0.05 0.00 33 1015.6
20260830192011 98 55 4.0 8.0 0.00 0.05 0.00 33 1015.6
20260830191534 98 190 1.0 8.0 0.00 0.05 0.00 33 1015.7
20260830191018 97 245 3.0 6.0 0.00 0.05 0.00 33 1015.8
20260830190519 97 304 3.0 8.0 0.00 0.05 0.00 34 1015.8
20260830190043 97 145 3.0 8.0 0.00 0.05 0.00 34 1015.9
20260830185519 97 182 3.0 8.0 0.00 0.05 0.00 34 1015.9
20260830185014 96 96 1.0 6.0 0.00 0.05 0.00 34 1015.9
20260830184536 96 163 1.0 7.0 0.00 0.05 0.00 34 1016.0
20260830184019 96 49 2.0 7.0 0.00 0.05 0.00 35 1016.1
20260830183519 97 158 2.0 6.0 0.00 0.05 0.00 34 1016.1
20260830183018 96 133 2.0 5.0 0.00 0.05 0.00 34 1016.1
20260830182518 97 152 2.0 7.0 0.00 0.05 0.00 35 1016.3
20260830182019 96 172 1.0 7.0 0.00 0.05 0.00 34 1016.4
20260830181519 96 109 2.0 5.0 0.00 0.05 0.00 35 1016.5
20260830181020 95 75 1.0 6.0 0.00 0.05 0.00 35 1016.5
20260830180523 95 94 2.0 6.0 0.00 0.05 0.00 36 1016.6
20260830180035 95 194 1.0 7.0 0.00 0.05 0.00 37 1016.6
20260830175515 94 144 2.0 7.0 0.00 0.05 0.00 38 1016.7
20260830175013 93 143 0.0 6.0 0.00 0.05 0.00 38 1016.7
20260830174519 93 145 2.0 6.0 0.00 0.05 0.00 40 1016.7
20260830174003 92 150 2.0 5.0 0.00 0.05 0.00 40 1016.8
20260830173512 92 122 1.0 5.0 0.00 0.05 0.00 41 1016.8
20260830173034 92 120 2.0 5.0 0.00 0.05 0.00 41 1016.9
20260830172520 92 98 2.0 6.0 0.00 0.05 0.00 42 1017.0
20260830172019 91 79 1.0 6.0 0.00 0.05 0.00 42 1017.0
20260830171530 91 116 2.0 5.0 0.00 0.05 0.00 43 1017.1
20260830171020 90 122 1.0 5.0 0.00 0.05 0.00 43 1017.1
20260830170516 90 131 1.0 6.0 0.00 0.05 0.00 44 1017.1
20260830170019 89 116 2.0 7.0 0.00 0.05 0.00 44 1017.1
20260830165519 89 156 2.0 7.0 0.00 0.05 0.00 44 1017.1
20260830165011 89 148 2.0 4.0 0.00 0.05 0.00 44 1017.1
20260830164516 89 149 2.0 4.0 0.00 0.05 0.00 44 1017.1
20260830164019 89 128 1.0 4.0 0.00 0.05 0.00 44 1017.1
20260830163515 89 117 1.0 6.0 0.00 0.05 0.00 44 1017.1
20260830163038 89 113 1.0 6.0 0.00 0.05 0.00 44 1017.2
20260830162519 89 129 2.0 5.0 0.00 0.05 0.00 44 1017.2
20260830162019 89 97 1.0 5.0 0.00 0.05 0.00 45 1017.3
20260830161539 89 110 2.0 5.0 0.00 0.05 0.00 45 1017.3
20260830161018 89 137 1.0 5.0 0.00 0.05 0.00 44 1017.3
20260830160513 89 131 2.0 4.0 0.00 0.05 0.00 45 1017.4
20260830160023 88 118 1.0 6.0 0.00 0.05 0.00 45 1017.3
20260830155516 88 104 3.0 7.0 0.00 0.05 0.00 45 1017.3
20260830155012 88 89 2.0 7.0 0.00 0.05 0.00 46 1017.3
20260830154516 88 103 2.0 5.0 0.00 0.05 0.00 46 1017.3
20260830154016 88 124 1.0 6.0 0.00 0.05 0.00 45 1017.2
20260830153521 88 125 2.0 6.0 0.00 0.05 0.00 46 1017.3
20260830153036 87 131 2.0 4.0 0.00 0.05 0.00 47 1017.3
20260830152515 87 120 1.0 7.0 0.00 0.05 0.00 47 1017.3
20260830152019 86 103 1.0 7.0 0.00 0.05 0.00 48 1017.2
20260830151535 86 132 1.0 4.0 0.00 0.05 0.00 49 1017.1
20260830151017 85 130 1.0 4.0 0.00 0.05 0.00 50 1017.1
20260830150512 85 130 1.0 4.0 0.00 0.05 0.00 50 1017.2
20260830150018 85 129 0.0 4.0 0.00 0.05 0.00 51 1017.2
20260830145516 85 127 0.0 3.0 0.00 0.05 0.00 51 1017.2
20260830145011 84 88 0.0 3.0 0.00 0.05 0.00 52 1017.1
20260830144533 84 78 0.0 4.0 0.00 0.05 0.00 52 1017.1
20260830144018 84 72 0.0 3.0 0.00 0.05 0.00 52 1017.1
20260830143517 84 75 1.0 3.0 0.00 0.05 0.00 53 1017.1
20260830143031 83 8 0.0 4.0 0.00 0.05 0.00 53 1017.1
20260830142521 83 4 1.0 4.0 0.00 0.05 0.00 53 1017.1
20260830142013 83 4 0.0 4.0 0.00 0.05 0.00 53 1017.2
20260830141535 83 4 0.0 3.0 0.00 0.05 0.00 53 1017.2
20260830141014 83 4 0.0 5.0 0.00 0.05 0.00 53 1017.3
20260830140517 83 3 1.0 5.0 0.00 0.05 0.00 53 1017.3
20260830140033 83 360 2.0 5.0 0.00 0.05 0.00 53 1017.3
20260830135516 83 360 2.0 5.0 0.00 0.05 0.00 52 1017.3
20260830135012 82 360 1.0 5.0 0.00 0.05 0.00 53 1017.3
20260830134525 82 360 0.0 3.0 0.00 0.05 0.00 52 1017.2
20260830134016 82 360 0.0 4.0 0.00 0.05 0.00 52 1017.2
20260830133512 82 360 0.0 6.0 0.00 0.05 0.00 53 1017.1
20260830133019 82 360 2.0 6.0 0.00 0.05 0.00 52 1017.1
20260830132516 82 360 1.0 6.0 0.00 0.05 0.00 53 1017.1
20260830132012 82 360 1.0 5.0 0.00 0.05 0.00 53 1017.1
20260830131522 82 360 1.0 5.0 0.00 0.05 0.00 53 1017.0
20260830131014 82 360 0.0 6.0 0.00 0.05 0.00 53 1017.0
20260830130513 82 360 2.0 6.0 0.00 0.05 0.00 53 1017.0
20260830130027 82 4 1.0 7.0 0.00 0.05 0.00 53 1017.0
20260830125514 82 4 0.0 7.0 0.00 0.05 0.00 53 1017.0
20260830125012 82 3 2.0 6.0 0.00 0.05 0.00 53 1016.9
20260830124520 82 3 2.0 6.0 0.00 0.05 0.00 53 1016.8
20260830124014 83 3 2.0 6.0 0.00 0.05 0.00 53 1016.8
20260830123512 83 3 2.0 7.0 0.00 0.05 0.00 52 1016.6
20260830123020 83 2 2.0 7.0 0.00 0.05 0.00 51 1016.5
20260830122515 83 3 1.0 10.0 0.00 0.05 0.00 51 1016.4
20260830122012 83 3 3.0 10.0 0.00 0.05 0.00 50 1016.3
20260830121519 83 3 2.0 6.0 0.00 0.05 0.00 50 1016.4
20260830121017 84 3 2.0 6.0 0.00 0.05 0.00 49 1016.4
20260830120513 84 2 2.0 6.0 0.00 0.05 0.00 48 1016.6
20260830120022 84 2 1.0 5.0 0.00 0.05 0.00 47 1016.7
20260830115514 84 2 0.0 5.0 0.00 0.05 0.00 46 1016.7
20260830115010 85 2 0.0 5.0 0.00 0.05 0.00 46 1016.6
20260830114517 84 2 2.0 8.0 0.00 0.05 0.00 45 1016.4
20260830114020 85 2 3.0 8.0 0.00 0.05 0.00 45 1016.3
20260830113513 85 4 1.0 8.0 0.00 0.05 0.00 45 1016.1
20260830113031 85 4 3.0 9.0 0.00 0.05 0.00 45 1015.9
20260830112515 85 3 3.0 10.0 0.00 0.05 0.00 45 1015.7
20260830112012 85 3 5.0 10.0 0.00 0.05 0.00 45 1015.5
20260830111533 85 4 4.0 9.0 0.00 0.05 0.00 45 1015.6
20260830111014 85 3 4.0 11.0 0.00 0.05 0.00 45 1015.8
20260830110513 84 4 5.0 11.0 0.00 0.05 0.00 46 1015.8
20260830110034 84 2 4.0 10.0 0.00 0.05 0.00 46 1015.9
20260830105515 85 3 3.0 10.0 0.00 0.05 0.00 46 1015.9
20260830105012 85 3 5.0 10.0 0.00 0.05 0.00 46 1015.9
20260830104604 85 2 4.0 10.0 0.00 0.05 0.00 45 1015.9
20260830104016 85 3 4.0 9.0 0.00 0.05 0.00 45 1015.8
20260830103516 85 2 5.0 9.0 0.00 0.05 0.00 45 1015.7
20260830103033 85 3 4.0 9.0 0.00 0.05 0.00 45 1015.6
20260830102516 85 4 4.0 8.0 0.00 0.05 0.00 45 1015.5
20260830102012 85 3 3.0 9.0 0.00 0.05 0.00 46 1015.5
20260830101533 85 3 3.0 9.0 0.00 0.05 0.00 45 1015.3
20260830101019 85 3 4.0 8.0 0.00 0.05 0.00 46 1015.3
20260830100514 84 2 4.0 9.0 0.00 0.05 0.00 47 1015.2
20260830100030 84 3 4.0 9.0 0.00 0.05 0.00 47 1015.1
20260830095515 84 3 2.0 6.0 0.00 0.05 0.00 48 1015.0
20260830095014 84 360 3.0 6.0 0.00 0.05 0.00 48 1015.0
20260830094535 84 360 3.0 6.0 0.00 0.05 0.00 49 1015.0
20260830094018 83 360 2.0 5.0 0.00 0.05 0.00 50 1014.9
20260830093513 83 360 2.0 5.0 0.00 0.05 0.00 50 1014.9
20260830093041 83 360 1.0 7.0 0.00 0.05 0.00 51 1014.8